STARLINK-1368, 45540

Orbit data source: Space-Track

STARLINK-1368, 45540 is a payload satellite owned by SpaceX/Seattle (US) in LEO that was launched on Wed, 22 Apr 2020 UTC via an FALCON 9 launch vehicle from the Air Force Eastern Test Range (AFETR). Payload-class satellites include a variety of spacecraft equipped with specific instruments for various scientific and technological missions. These include communications satellites like Starlink; space stations such as the ISS; scientific satellites like the Hubble; Earth observation satellites from companies like Planet Labs, Umbra, and HawkEye 360; GPS; miniature CubeSats for education and research; and military/defense satellites.

Loading next visibility...
Identifier
45540, 2020-025K
Orbit
LEO
Country
Flag of USUS
Related business
Manufacturer
SpaceX/Seattle
Mission
Partially operational Commercial Communications
Bus & Motor
STARLINK, Unknown motor
Mass
260 kg wet, ~248 kg dry
Launch date (UTC)
2020-04-22 (6 years ago)
Launch vehicle
FALCON 9
Launch site
Air Force Eastern Test Range (AFETR)
Object type
Payload
Rocket body
Debris
Shape & HBR
Box + 1 Pan, 10.1 m
Radar Cross Section
13.562 m², Large (>1 m²)

Expand to show TLE details & history
Last TLE update: 8 hours ago

TLE from 8 hours ago
0 STARLINK-1368
1 45540U 20025K   26266.58018312  .00040673  00000-0  79581-3 0  9990
2 45540  53.1504 250.8331 0004275  72.6870 287.4605 15.47037619355624
Epoch: 2026-09-23T13:55Z
TLE epoch observation values (Epoch: 2026-09-23T13:55:27.821Z)
Latitude
-0.00006°
Longitude
39.53787°
Altitude
425.431 km
Speed
7.658 km/s
True Right ascension
16h 43m 19s
True Declination
0° 00' 00"
Sunlit
Object was in daylight at epoch
Visualization orbit readout
Latitude
Unknown
Longitude
Unknown
Altitude
Unknown
Speed
Unknown
Apparent Right ascension
Unknown
Apparent Declination
Unknown
Sunlit
N/A
Visualization observer readout
Local Sidereal Time
15:22:15
Azimuth
Unknown
Elevation
Unknown
Doppler factor
Unknown
Orbital elements
Apogee altitude
428.566 km
Perigee altitude
422.749 km
Semi-major axis
6,803.794 km
Eccentricity
0.00043
Inclination
53.1504°
RAAN
250.8331°
Arg. of periapsis
72.687°
True anomaly
287.41376°
Mean anomaly
287.4605°
Eccentric anomaly
287.43713°
Mean motion
3.86738 °/min
Orbital period
93.09 mins
BSTAR
0.00079581
Loading maneuver chart data...
Computing Atmospheric mass density...

Documentation

Showing up to 5 results
|